Rockport, TX

6:36 PM CDT on March 24, 2017 (GMT -0500)
Aransas County

Weather History for KRKP - April, 2012

Change the Weather History Date:

Wednesday, April 18, 2012

  Actual Average Record
Temperature  
Mean Temperature 74 °F -  
Max Temperature 80 °F 79 °F 91 °F (1988)
Min Temperature 69 °F 67 °F 53 °F (2001)
Cooling Degree Days 9    
Growing Degree Days 24 (Base 50)    
Moisture  
Dew Point 61 °F    
Average Humidity 67    
Maximum Humidity 90    
Minimum Humidity 47    
Precipitation  
Precipitation 0.00 in - - ()
Sea Level Pressure  
Sea Level Pressure 30.11 in    
Wind  
Wind Speed 10 mph (ESE)    
Max Wind Speed 13 mph    
Max Gust Speed -    
Visibility 10 miles    
Events      
Averages and records for this station are not official NWS values.
T = Trace of Precipitation, MM = Missing Value Source: NWS Daily Summary

Daily Weather History Graph

Daily Weather History Graph

Search for Another Location

Airport or City:

Trip Planner

Search our weather history database for the weather conditions in past years. The results will help you decide how hot, cold, wet, or windy it might be!

Date:

Astronomy

Apr. 18, 2012 Rise Set
Actual Time 6:59 AM CDT 7:55 PM CDT
Civil Twilight 6:35 AM CDT 8:19 PM CDT
Nautical Twilight 6:06 AM CDT 8:48 PM CDT
Astronomical Twilight 5:37 AM CDT 9:17 PM CDT
Moon 5:15 AM CDT (4/18) 5:55 PM CDT (4/18)
Length of Visible Light 13h 44m
Length of Day
12h 55m
Waning Crescent, 6% of the Moon is Illuminated
Apr 18
Waning Crescent
Apr 21
New
Apr 29
First Quarter
May 5
Full
May 12
Last Quarter

Hourly Weather History & Observations

Time (CDT) Temp. Dew Point Humidity Pressure Visibility Wind Dir Wind Speed Gust Speed Precip Events Conditions
12:53 AM 72.0 °F 66.0 °F 81% 30.14 in 10.0 mi East 11.5 mph - N/A   Clear
1:23 AM 71.6 °F 66.2 °F 83% 30.14 in 10.0 mi East 10.4 mph - N/A   Mostly Cloudy
1:36 AM 71.6 °F 66.2 °F 83% 30.13 in 10.0 mi East 12.7 mph - N/A   Scattered Clouds
1:53 AM 72.0 °F 64.9 °F 78% 30.14 in 10.0 mi ESE 11.5 mph - N/A   Scattered Clouds
2:00 AM 71.6 °F 64.4 °F 78% 30.13 in 10.0 mi ESE 10.4 mph - N/A   Mostly Cloudy
2:08 AM 71.6 °F 64.4 °F 78% 30.12 in 10.0 mi ESE 12.7 mph - N/A   Scattered Clouds
2:16 AM 71.6 °F 64.4 °F 78% 30.13 in 10.0 mi East 10.4 mph - N/A   Mostly Cloudy
2:38 AM 71.6 °F 64.4 °F 78% 30.12 in 10.0 mi East 9.2 mph - N/A   Scattered Clouds
2:53 AM 71.1 °F 64.0 °F 78% 30.13 in 10.0 mi East 10.4 mph - N/A   Clear
3:53 AM 71.1 °F 63.0 °F 75% 30.13 in 10.0 mi ESE 9.2 mph - N/A   Partly Cloudy
4:53 AM 70.0 °F 63.0 °F 78% 30.12 in 10.0 mi East 8.1 mph - N/A   Clear
5:53 AM 70.0 °F 61.0 °F 73% 30.12 in 10.0 mi East 6.9 mph - N/A   Clear
7:53 AM 69.1 °F 66.0 °F 90% 30.14 in 10.0 mi NE 8.1 mph - N/A   Clear
8:53 AM 73.0 °F 64.9 °F 76% 30.16 in 10.0 mi ENE 9.2 mph - N/A   Partly Cloudy
9:53 AM 75.9 °F 61.0 °F 60% 30.16 in 10.0 mi East 12.7 mph - N/A   Clear
10:53 AM 77.0 °F 60.1 °F 56% 30.18 in 10.0 mi East 11.5 mph - N/A   Clear
11:53 AM 77.0 °F 60.1 °F 56% 30.17 in 10.0 mi East 9.2 mph - N/A   Clear
12:53 PM 77.0 °F 60.1 °F 56% 30.15 in 10.0 mi ESE 8.1 mph - N/A   Clear
1:53 PM 78.1 °F 59.0 °F 52% 30.12 in 10.0 mi ESE 6.9 mph - N/A   Clear
2:53 PM 79.0 °F 59.0 °F 50% 30.09 in 10.0 mi ESE 10.4 mph - N/A   Clear
3:53 PM 78.1 °F 59.0 °F 52% 30.07 in 10.0 mi ESE 10.4 mph - N/A   Clear
4:53 PM 79.0 °F 60.1 °F 52% 30.04 in 10.0 mi ESE 10.4 mph - N/A   Clear
5:53 PM 77.0 °F 55.0 °F 47% 30.04 in 10.0 mi SE 12.7 mph - N/A   Clear
6:53 PM 73.9 °F 55.0 °F 52% 30.03 in 10.0 mi SE 11.5 mph - N/A   Clear
7:53 PM 72.0 °F 55.0 °F 55% 30.02 in 10.0 mi SE 11.5 mph - N/A   Clear
8:53 PM 71.1 °F 57.0 °F 61% 30.03 in 10.0 mi SE 10.4 mph - N/A   Clear
9:53 PM 70.0 °F 57.0 °F 63% 30.04 in 10.0 mi SE 8.1 mph - N/A   Clear
10:53 PM 70.0 °F 57.0 °F 63% 30.06 in 10.0 mi SSE 6.9 mph - N/A   Clear
11:53 PM 70.0 °F 55.9 °F 61% 30.05 in 10.0 mi SSE 6.9 mph - N/A   Clear